Home   Weather   Crailsheim   Past weeks

Flag for Germany Past Weather in Crailsheim, Baden-Württemberg, Germany — Yesterday and Last 2 Weeks

Now
19 °F

Light snow. Overcast.


Feels Like: 9 °F
Forecast: 13 / 22 °F
Wind: 9 mph from Northeast

Location: Niederstetten

Current Time: Jan 17, 2017 at 1:55:16 am

Latest Report: Jan 17, 2017 at 1:20 am


Visibility: N/A

Pressure: 30.33 "Hg

Humidity: 86%

Dew Point: 16 °F

Location of CrailsheimLocation

Past Weather in Crailsheim — Graph

°F

Crailsheim Temperature Yesterday

Maximum temperature yesterday: 27 °F (at 2:20 am)
Minimum temperature yesterday: 16 °F (at 9:20 am)
Average temperature yesterday: 23 °F

High & Low Weather Summary for the Past Weeks

 TemperatureHumidityPressure
High39 °F (Jan 13, 1:20 am)100% (Jan 2, 6:20 am)30.66 "Hg (Jan 2, 6:20 am)
Low7 °F (Jan 6, 5:20 am)54% (Jan 7, 1:20 pm)29.24 "Hg (Jan 13, 1:20 am)
Average28 °F88%30.03 "Hg
* Reported Jan 2 12:20 am — Jan 17 12:20 am, Crailsheim, Weather by CustomWeather, © 2017

Note: Actual official high and low records may vary slightly from our data, if they occured in-between our weather recording intervals... More about our weather records

Advertising

Crailsheim Weather History for the Previous 24 Hours

Scroll right to see more
 ConditionsComfort  
Time TempWeatherWind HumidityBarometerVisibility
12:20 am
Tue, Jan 17
16 °FPassing clouds.6 mph93%30.33 "HgN/A
11:20 pm
Mon, Jan 16
19 °FPassing clouds.6 mph86%30.30 "HgN/A
10:20 pm21 °FPassing clouds.6 mph86%30.30 "HgN/A
9:20 pm21 °FSnow flurries. Passing clouds.6 mph86%30.30 "HgN/A
8:20 pm23 °FSnow flurries. Passing clouds.6 mph86%30.27 "HgN/A
7:20 pm23 °FSnow flurries. Passing clouds.7 mph86%30.27 "HgN/A
6:20 pm23 °FPassing clouds.6 mph80%30.24 "HgN/A
5:20 pm23 °FPassing clouds.5 mph80%30.24 "HgN/A
5:00 pm23 °FPassing clouds.7 mph80%30.21 "HgN/A
4:20 pm25 °FPartly sunny.7 mph74%30.21 "HgN/A
3:20 pm25 °FPartly sunny.6 mph80%30.21 "HgN/A
2:20 pm25 °FPartly sunny.6 mph80%30.18 "HgN/A
1:20 pm23 °FPartly sunny.3 mph86%30.18 "HgN/A
12:20 pm23 °FSnow flurries. Partly sunny.3 mph86%30.18 "HgN/A
11:20 am23 °FSnow flurries. Broken clouds.5 mph93%30.18 "HgN/A
10:42 am19 °FBroken clouds.5 mph93%30.18 "Hg5 mi
10:20 am19 °FFog.5 mph86%30.18 "Hg4 mi
9:20 am16 °FFog.2 mph93%30.15 "Hg3 mi
8:20 am19 °FFog.3 mph100%30.15 "Hg3 mi
7:20 am21 °FPassing clouds.6 mph93%30.12 "Hg4 mi
6:20 am23 °FLight snow. Passing clouds.6 mph93%30.12 "Hg5 mi
5:20 am25 °FLight snow. Passing clouds.5 mph93%30.12 "Hg6 mi
4:20 am25 °FPassing clouds.3 mph93%30.09 "HgN/A
3:20 am25 °FPassing clouds.6 mph100%30.09 "Hg5 mi
2:20 am27 °FLight snow. Ice fog.5 mph93%30.09 "Hg3 mi
1:20 am25 °FLight snow. Low clouds.3 mph100%30.09 "Hg4 mi
Weather by CustomWeather, © 2017

See weather overviewHow to use our weather pages